Location: Ch�risy
(50.2331°N, 2.9131°E)
Time: 08:36:16
(UTC+00:00)

H-2A R/B - Visible Passes

Search period start: 11 May 2021 00:00
Search period end: 21 May 2021 00:00
Orbit: 578 x 654 km, 98.5° (Epoch: 10 May)

Date Brightness Start Highest point End Pass type
(mag) Time Alt. Az. Time Alt. Az. Time Alt. Az.
11 May 5.9 02:55:52 10° ENE 02:57:21 11° NE 02:58:50 10° NNE visible
12 May 5.5 03:10:34 10° E 03:13:08 15° NE 03:15:43 10° NNE visible
13 May 5.3 03:25:44 10° ESE 03:28:58 20° ENE 03:32:13 10° NNE visible
17 May 6.0 02:56:10 10° ENE 02:57:30 11° NE 02:58:49 10° NE visible
18 May 5.6 03:10:48 10° E 03:13:17 15° NE 03:15:47 10° NNE visible
